Location: Unspecified
(0.0000°N, 0.0000°E)
Time: 07:29:33
(UTC+00:00)

Tiangong 2 - Pass Details

Date: 08 December 2018
Orbit: 382 x 392 km, 42.8° (Epoch: 11 December)

Event Time Altitude Azimuth Distance (km) Brightness Sun altitude
Rises 19:25:39 0° 203° (SSW) 2,251 5.7 -21.5°
Reaches altitude 10° 19:28:05 10° 184° (S) 1,395 4.2 -22.0°
Enters shadow 19:28:58 15° 171° (S) 1,157 3.6 -22.2°
